User: anonymous   Login
Location: Oshawa
(43.9000°N, 78.8670°W)
Time: 17:02:16
(UTC-04:00)
Language:

CZ-4C R/B - Orbit

View from above orbital plane
View from above orbital plane
View from above satellite
View from above satellite

Ground track
Ground track

The orbit data is extracted from the following two-line orbital elements,

1 32290U 07055B   15111.33032024  .00013206  00000-0  44703-3 0  9992
2 32290 097.5437 193.8509 0080157 049.7756 350.5538 15.27619167411221
Epoch (UTC): 21 April 2015 07:55:39
Eccentricity: 0.0080157
inclination: 97.5437°
perigee height: 428 km
apogee height: 538 km
right ascension of ascending node: 193.8509°
argument of perigee: 49.7756°
revolutions per day: 15.27619167
mean anomaly at epoch: 350.5538°
orbit number at epoch: 41122

The dashed part of the orbit path shows where the satellite is in the earth's shadow,  

DLR